Вернуться в каталог

NOAA 16 DEB

АктивенSSO
NORAD 41653·DEBRIS·🇺🇸 United States

Запущен Sep 21, 2000 с Vandenberg Space Force Base

Loading…

Ближайшие Пролёты (ближайшие 24 часа)

TLE

СвежийSource: Space-Track

Эпоха: Sep 13, 2026, 20:17 UTC

1 41653U 00055NS  26256.84571863  .00004630  00000-0  13815-2 0  9995
2 41653  98.8763  36.5676 0003135 328.3467  31.7533 14.43513314540022

Отслеживайте NOAA 16 DEB в реальном времени с AllMySat

Download on the App Store